When you browse on this site, cookies collect data to enhance your experience and personalize the content and advertising you see.
Visit our Privacy Policy to learn more. By continuing to use the site, you agree to this use of cookies and data.
  • In Portugal
  • List of Countries
  • For 7 days
  • Water Temperature
  • Satellite Maps
  • Weather Map
  • Weather Widgets
  • user-avatar
    Login

    Hourly Weather Zajezierze

    Today, 17 July, Wednesday

    Time Temperature Precipitation Wind Pressure Humidity
    00:00 +13°C° 0.3 mm 3 mps 751 mmHg 89%
    01:00 +13°C° 0.3 mm 4 mps 751 mmHg 92%
    02:00 +12°C° 0 mm 4 mps 751 mmHg 92%
    03:00 +11°C° 0 mm 4 mps 750 mmHg 93%
    04:00 +11°C° 0 mm 4 mps 750 mmHg 94%
    05:00 +12°C° 0.1 mm 4 mps 750 mmHg 91%
    06:00 +13°C° 0.1 mm 5 mps 751 mmHg 87%
    07:00 +14°C° 0.1 mm 6 mps 751 mmHg 84%
    08:00 +15°C° 0.2 mm 6 mps 751 mmHg 80%
    09:00 +16°C° 0.2 mm 6 mps 751 mmHg 75%
    10:00 +17°C° 0.2 mm 6 mps 752 mmHg 71%
    11:00 +19°C° 0 mm 6 mps 752 mmHg 67%
    12:00 +19°C° 0 mm 6 mps 752 mmHg 64%
    13:00 +20°C° 0 mm 6 mps 752 mmHg 60%
    14:00 +19°C° 0 mm 6 mps 752 mmHg 62%
    15:00 +19°C° 0 mm 5 mps 753 mmHg 64%
    16:00 +17°C° 0 mm 5 mps 753 mmHg 66%
    17:00 +17°C° 0 mm 4 mps 753 mmHg 70%
    18:00 +15°C° 0 mm 4 mps 753 mmHg 74%
    19:00 +14°C° 0 mm 3 mps 753 mmHg 77%
    20:00 +13°C° 0 mm 3 mps 753 mmHg 82%
    21:00 +12°C° 0 mm 2 mps 753 mmHg 87%
    22:00 +10°C° 0 mm 2 mps 754 mmHg 91%
    23:00 +10°C° 0 mm 2 mps 754 mmHg 92%

    Tomorrow, 18 July, Thursday

    Time Temperature Precipitation Wind Pressure Humidity
    00:00 +10°C° 0 mm 2 mps 754 mmHg 93%
    01:00 +10°C° 0 mm 2 mps 754 mmHg 94%
    02:00 +10°C° 0 mm 2 mps 754 mmHg 94%
    03:00 +9°C° 0 mm 2 mps 754 mmHg 94%
    04:00 +9°C° 0 mm 2 mps 754 mmHg 94%
    05:00 +12°C° 0 mm 2 mps 754 mmHg 89%
    06:00 +14°C° 0 mm 2 mps 754 mmHg 84%
    07:00 +16°C° 0 mm 2 mps 754 mmHg 79%
    08:00 +17°C° 0 mm 2 mps 754 mmHg 73%
    09:00 +19°C° 0 mm 2 mps 754 mmHg 68%
    10:00 +20°C° 0 mm 2 mps 754 mmHg 62%
    11:00 +20°C° 0 mm 2 mps 754 mmHg 60%
    12:00 +21°C° 0 mm 2 mps 754 mmHg 59%
    13:00 +21°C° 0 mm 2 mps 754 mmHg 57%
    14:00 +23°C° 0 mm 2 mps 754 mmHg 57%
    15:00 +23°C° 0 mm 2 mps 754 mmHg 57%
    16:00 +23°C° 0 mm 2 mps 754 mmHg 57%
    17:00 +20°C° 0 mm 2 mps 754 mmHg 64%
    18:00 +19°C° 0 mm 2 mps 754 mmHg 72%
    19:00 +18°C° 0 mm 3 mps 754 mmHg 80%
    20:00 +16°C° 0 mm 2 mps 754 mmHg 83%
    21:00 +15°C° 0 mm 2 mps 754 mmHg 86%
    22:00 +13°C° 0 mm 1 mps 754 mmHg 89%
    23:00 +13°C° 0 mm 1 mps 754 mmHg 89%

    Day after tomorrow, 19 July, Friday

    Time Temperature Precipitation Wind Pressure Humidity
    00:00 +13°C° 0 mm 1 mps 754 mmHg 88%
    01:00 +13°C° 0 mm 1 mps 754 mmHg 88%
    02:00 +12°C° 0 mm 1 mps 754 mmHg 88%
    03:00 +12°C° 0 mm 1 mps 754 mmHg 89%
    04:00 +12°C° 0 mm 1 mps 754 mmHg 89%
    05:00 +14°C° 0 mm 1 mps 754 mmHg 84%
    06:00 +16°C° 0 mm 1 mps 755 mmHg 79%
    07:00 +19°C° 0 mm 1 mps 755 mmHg 73%
    08:00 +20°C° 0 mm 1 mps 755 mmHg 68%
    09:00 +22°C° 0 mm 1 mps 755 mmHg 63%
    10:00 +23°C° 0 mm 1 mps 755 mmHg 58%
    11:00 +24°C° 0 mm 1 mps 755 mmHg 55%
    12:00 +25°C° 0 mm 1 mps 755 mmHg 52%
    13:00 +25°C° 0 mm 1 mps 754 mmHg 49%
    14:00 +25°C° 0 mm 1 mps 754 mmHg 50%
    15:00 +25°C° 0 mm 1 mps 754 mmHg 50%
    16:00 +25°C° 0 mm 1 mps 754 mmHg 51%
    17:00 +24°C° 0 mm 1 mps 754 mmHg 57%
    18:00 +23°C° 0 mm 1 mps 754 mmHg 62%
    19:00 +21°C° 0 mm 2 mps 754 mmHg 68%
    20:00 +21°C° 0 mm 1 mps 754 mmHg 71%
    21:00 +19°C° 0 mm 1 mps 755 mmHg 74%
    22:00 +18°C° 0 mm 1 mps 755 mmHg 77%
    23:00 +16°C° 0 mm 1 mps 755 mmHg 78%

    20 July, Saturday

    Time Temperature Precipitation Wind Pressure Humidity
    00:00 +16°C° 0 mm 1 mps 755 mmHg 79%
    01:00 +15°C° 0 mm 2 mps 755 mmHg 80%
    02:00 +15°C° 0 mm 1 mps 755 mmHg 82%
    03:00 +15°C° 0 mm 1 mps 755 mmHg 83%
    04:00 +15°C° 0 mm 1 mps 755 mmHg 84%
    05:00 +16°C° 0 mm 1 mps 755 mmHg 79%
    06:00 +19°C° 0 mm 1 mps 755 mmHg 74%
    07:00 +20°C° 0 mm 1 mps 755 mmHg 69%
    08:00 +22°C° 0 mm 1 mps 756 mmHg 65%
    09:00 +23°C° 0 mm 1 mps 756 mmHg 61%
    10:00 +24°C° 0 mm 1 mps 756 mmHg 58%
    11:00 +25°C° 0 mm 1 mps 756 mmHg 54%
    12:00 +26°C° 0 mm 1 mps 756 mmHg 50%
    13:00 +28°C° 0 mm 1 mps 756 mmHg 46%
    14:00 +28°C° 0 mm 1 mps 756 mmHg 47%
    15:00 +28°C° 0 mm 2 mps 756 mmHg 48%
    16:00 +28°C° 0 mm 2 mps 756 mmHg 49%
    17:00 +26°C° 0 mm 2 mps 756 mmHg 56%
    18:00 +25°C° 0 mm 2 mps 756 mmHg 63%
    19:00 +24°C° 0 mm 3 mps 756 mmHg 70%
    20:00 +21°C° 0 mm 3 mps 756 mmHg 72%
    21:00 +20°C° 0 mm 3 mps 756 mmHg 74%
    22:00 +19°C° 0 mm 3 mps 756 mmHg 76%
    23:00 +18°C° 0 mm 3 mps 756 mmHg 74%

    21 July, Sunday

    Time Temperature Precipitation Wind Pressure Humidity
    00:00 +18°C° 0 mm 3 mps 756 mmHg 73%
    01:00 +18°C° 0 mm 3 mps 756 mmHg 72%
    02:00 +18°C° 0 mm 3 mps 756 mmHg 72%
    03:00 +17°C° 0 mm 3 mps 756 mmHg 72%
    04:00 +17°C° 0 mm 3 mps 755 mmHg 73%
    05:00 +19°C° 0.1 mm 3 mps 755 mmHg 72%
    06:00 +20°C° 0.1 mm 3 mps 755 mmHg 72%
    07:00 +21°C° 0.1 mm 3 mps 755 mmHg 72%
    08:00 +21°C° 0.6 mm 3 mps 756 mmHg 76%
    09:00 +21°C° 0.6 mm 2 mps 756 mmHg 79%
    10:00 +21°C° 0.6 mm 2 mps 756 mmHg 83%
    11:00 +23°C° 0.3 mm 2 mps 756 mmHg 81%
    12:00 +23°C° 0.3 mm 2 mps 755 mmHg 80%
    13:00 +24°C° 0.3 mm 1 mps 755 mmHg 78%
    14:00 +24°C° 1.8 mm 2 mps 755 mmHg 79%
    15:00 +24°C° 1.8 mm 2 mps 755 mmHg 79%
    16:00 +24°C° 1.8 mm 3 mps 755 mmHg 80%
    17:00 +23°C° 1.1 mm 2 mps 755 mmHg 83%
    18:00 +23°C° 1.1 mm 2 mps 755 mmHg 87%
    19:00 +21°C° 1.1 mm 2 mps 755 mmHg 90%
    20:00 +20°C° 0.2 mm 2 mps 756 mmHg 91%
    21:00 +20°C° 0.2 mm 1 mps 756 mmHg 92%
    22:00 +19°C° 0.2 mm 1 mps 756 mmHg 93%
    23:00 +18°C° 0 mm 2 mps 756 mmHg 94%

    22 July, Monday

    Time Temperature Precipitation Wind Pressure Humidity
    00:00 +17°C° 0 mm 2 mps 756 mmHg 95%
    01:00 +17°C° 0 mm 2 mps 756 mmHg 96%
    02:00 +17°C° 0 mm 2 mps 757 mmHg 96%
    03:00 +17°C° 0 mm 2 mps 757 mmHg 96%
    04:00 +16°C° 0 mm 2 mps 757 mmHg 97%
    05:00 +18°C° 0 mm 3 mps 757 mmHg 93%
    06:00 +19°C° 0 mm 3 mps 757 mmHg 90%
    07:00 +20°C° 0 mm 3 mps 758 mmHg 87%
    08:00 +21°C° 0 mm 3 mps 758 mmHg 80%
    09:00 +24°C° 0 mm 3 mps 758 mmHg 73%
    10:00 +25°C° 0 mm 3 mps 759 mmHg 65%
    11:00 +25°C° 0.4 mm 3 mps 759 mmHg 66%
    12:00 +25°C° 0.4 mm 4 mps 759 mmHg 67%
    13:00 +26°C° 0.4 mm 5 mps 759 mmHg 68%
    14:00 +25°C° 0.2 mm 5 mps 759 mmHg 68%
    15:00 +25°C° 0.2 mm 5 mps 759 mmHg 69%
    16:00 +23°C° 0.2 mm 5 mps 759 mmHg 70%
    17:00 +22°C° 0 mm 4 mps 759 mmHg 75%
    18:00 +21°C° 0 mm 4 mps 759 mmHg 80%
    19:00 +20°C° 0 mm 3 mps 759 mmHg 85%
    20:00 +18°C° 0 mm 3 mps 759 mmHg 89%
    21:00 +17°C° 0 mm 2 mps 759 mmHg 93%
    22:00 +16°C° 0 mm 2 mps 759 mmHg 97%
    23:00 +16°C° 0 mm 2 mps 759 mmHg 97%
    Show more